Montreal Mirabel, Quebec

1:39 AM EDT on September 01, 2016 (GMT -0400)
Montreal International (Mirabel)

Weather History for CYMX - March, 2013

Change the Weather History Date:

Monday, March 25, 2013

  Actual Average Record
Temperature  
Mean Temperature 32 °F -  
Max Temperature 42 °F 35 °F 46 °F (2003)
Min Temperature 21 °F 21 °F 1 °F (2008)
Degree Days  
Heating Degree Days 34    
Moisture  
Dew Point 25 °F    
Average Humidity 72    
Maximum Humidity 93    
Minimum Humidity 49    
Precipitation  
Precipitation 0.00 in - - ()
Sea Level Pressure  
Sea Level Pressure 29.78 in    
Wind  
Wind Speed 4 mph ()    
Max Wind Speed 10 mph    
Max Gust Speed 18 mph    
Averages and records for this station are not official NWS values.
T = Trace of Precipitation, MM = Missing Value Source: Averaged Metar Reports

Daily Weather History Graph

Daily Weather History Graph

Search for Another Location

Airport or City:

Trip Planner

Search our weather history database for the weather conditions in past years. The results will help you decide how hot, cold, wet, or windy it might be!

Date:

Astronomy

Mar. 25, 2013 Rise Set
Actual Time 6:49 AM EDT 7:15 PM EDT
Civil Twilight 6:19 AM EDT 7:45 PM EDT
Nautical Twilight 5:44 AM EDT 8:20 PM EDT
Astronomical Twilight 5:08 AM EDT 8:57 PM EDT
Moon 5:41 PM EDT (3/25) 5:35 AM EDT (3/25)
Length of Visible Light 13h 25m
Length of Day
12h 26m
Waxing Gibbous, 96% of the Moon is Illuminated
Mar 25
Waxing Gibbous
Mar 27
Full
Apr 3
Last Quarter
Apr 10
New
Apr 18
First Quarter

Hourly Weather History & Observations

Time (EDT) Temp. Windchill Dew Point Humidity Pressure Visibility Wind Dir Wind Speed Gust Speed Precip Events Conditions
12:00 AM 26.6 °F - 23.0 °F 86% 29.85 in 25.0 mi Calm Calm - N/A   Clear
1:00 AM 24.8 °F - 21.2 °F 86% 29.85 in 25.0 mi Calm Calm - N/A   Partly Cloudy
2:00 AM 21.2 °F - 19.4 °F 93% 29.86 in 25.0 mi Calm Calm - N/A   Partly Cloudy
3:00 AM 23.0 °F - 19.4 °F 86% 29.84 in 25.0 mi NE 2.3 mph - N/A   Mostly Cloudy
4:00 AM 24.8 °F - 23.0 °F 93% 29.83 in 25.0 mi Calm Calm - N/A   Scattered Clouds
5:00 AM 26.6 °F 22.6 °F 23.0 °F 86% 29.83 in 25.0 mi North 3.5 mph - N/A   Mostly Cloudy
6:00 AM 28.4 °F 24.6 °F 24.8 °F 86% 29.82 in 25.0 mi NNE 3.5 mph - N/A   Mostly Cloudy
7:00 AM 30.2 °F 26.7 °F 26.6 °F 86% 29.81 in 25.0 mi NNE 3.5 mph - N/A   Mostly Cloudy
8:00 AM 32.0 °F 27.5 °F 28.4 °F 87% 29.82 in 45.0 mi NE 4.6 mph - N/A   Overcast
9:00 AM 33.8 °F 27.7 °F 28.4 °F 81% 29.82 in 40.0 mi ENE 6.9 mph - N/A   Overcast
10:00 AM 35.6 °F 28.6 °F 28.4 °F 75% 29.81 in 40.0 mi ENE 9.2 mph - N/A   Overcast
11:00 AM 37.4 °F 32.1 °F 30.2 °F 75% 29.80 in 25.0 mi NE 6.9 mph 18.4 mph N/A   Mostly Cloudy
12:00 PM 39.2 °F 32.5 °F 28.4 °F 65% 29.77 in 40.0 mi ENE 10.4 mph - N/A   Mostly Cloudy
1:00 PM 41.0 °F 35.2 °F 28.4 °F 61% 29.75 in 45.0 mi NE 9.2 mph 17.3 mph N/A   Scattered Clouds
2:00 PM 41.0 °F 34.7 °F 28.4 °F 61% 29.74 in 45.0 mi NE 10.4 mph - N/A   Scattered Clouds
3:00 PM 42.8 °F 37.0 °F 24.8 °F 49% 29.72 in 45.0 mi ENE 10.4 mph 17.3 mph N/A   Scattered Clouds
4:00 PM 42.8 °F 38.0 °F 24.8 °F 49% 29.70 in 45.0 mi ENE 8.1 mph - N/A   Scattered Clouds
5:00 PM 42.8 °F 38.0 °F 24.8 °F 49% 29.69 in 45.0 mi ENE 8.1 mph - N/A   Scattered Clouds
6:00 PM 42.8 °F 40.1 °F 26.6 °F 53% 29.69 in 45.0 mi NE 4.6 mph - N/A   Scattered Clouds
7:00 PM 41.0 °F 38.0 °F 26.6 °F 57% 29.70 in 45.0 mi NE 4.6 mph - N/A   Mostly Cloudy
8:00 PM 37.4 °F 34.9 °F 24.8 °F 60% 29.72 in 25.0 mi NE 3.5 mph - N/A   Mostly Cloudy
9:00 PM 35.6 °F 28.6 °F 26.6 °F 70% 29.75 in 25.0 mi ENE 9.2 mph 18.4 mph N/A   Mostly Cloudy
10:00 PM 33.8 °F 27.0 °F 24.8 °F 70% 29.77 in 25.0 mi NE 8.1 mph - N/A   Overcast
11:00 PM 33.8 °F 29.6 °F 24.8 °F 70% 29.77 in 25.0 mi NNE 4.6 mph - N/A   Overcast